Tracking 19219 objects as of 20-Jul-2018
HD Live streaming from Space Station
objects crossing your sky now

CZ-2C DEB

Track CZ-2C DEB now!
10-day predictions


NORAD ID: 40263
Int'l Code: 2014-059C
Perigee: 652.9 km
Apogee: 806.1 km
Inclination: 98.3 °
Period: 99.2 minutes
Semi major axis: 7100 km
RCS: Unknown
Launch date: September 28, 2014
Source: People's Republic of China (PRC)
Launch site: Jiuquan Satellite Launch Center, China (JSC)

Note: This is SATELLITE DEBRIS
aabbcc
Your satellite tracking list
Your tracking list is empty




NASA's NSSDC Master Catalog

Two Line Element Set (TLE):
1 40263U 14059C   18200.47094089 +.00000402 +00000-0 +10628-3 0  9992
2 40263 098.2878 289.8731 0107909 288.7847 070.1666 14.50999641201352
Source of the keplerian elements: AFSPC